Location: Kirtland Hills
(41.6239°N, 81.3071°W)
Time: 18:01:17
(UTC+00:00)

Cosmos 1745 Rocket - Pass Details

Date: 29 October 2020
Orbit: 953 x 997 km, 83.0° (Epoch: 27 November)

Event Time Altitude Azimuth Distance (km) Brightness Sun altitude
Rises 23:22:19 0° 357° (N) 3,696 7.0 -11.6°
Reaches altitude 10° 23:24:56 10° 3° (N) 2,750 6.3 -12.1°
Maximum altitude 23:31:04 51° 78° (ENE) 1,238 4.2 -13.2°
Drops below altitude 10° 23:37:11 10° 153° (SSE) 2,754 6.2 -14.4°
Sets 23:39:48 0° 159° (SSE) 3,701 6.9 -14.9°
